Regional Weather Roundup
Issued by NWS Sioux Falls, SD

Home | Current Version | Previous Version | Text Only | Print | Product List | Glossary On
Versions: 1 2 3 4 5 6 7 8 9 10 11 12 13 14 15 16 17 18 19 20 21 22 23 24 25 26 27 28 29 30 31 32 33 34 35 36 37 38 39 40 41 42 43 44 45 46 47 48 49 50
000
ASUS43 KFSD 272210
RWRFSD

WEATHER ROUNDUP FOR SE SOUTH DAKOTA/SW MINNESOTA/NW IOWA
NATIONAL WEATHER SERVICE SIOUX FALLS SD
500 PM CDT SUN JUL 27 2014

NOTE: "FAIR" INDICATES FEW OR NO CLOUDS BELOW 12,000 FEET WITH NO
SIGNIFICANT WEATHER AND OR OBSTRUCTIONS TO VISIBILITY.


SDZ038>040-050-052>070-272300-
SOUTHEAST SOUTH DAKOTA

CITY           SKY/WX    TMP DP  RH WIND       PRES   REMARKS
CHAMBERLAIN    SUNNY     77  55  47 N14G22    30.20S
HURON          PTSUNNY   70  55  59 N17       30.19S
MADISON        CLOUDY    66  55  68 N16G23    30.19R
MITCHELL       MOSUNNY   73  58  59 N14G25    30.18S
SIOUX FALLS    CLOUDY    70  56  61 N22       30.16R
WINNER         FAIR      82  48  30 N17       30.21S
YANKTON        MOSUNNY   75  59  57 NW20      30.15S
$$

MNZ071-072-080-081-089-090-097-098-272300-
SOUTHWEST MINNESOTA

CITY           SKY/WX    TMP DP  RH WIND       PRES   REMARKS
FAIRMONT       PTSUNNY   73  57  56 NW20G28   30.04R
JACKSON        MOSUNNY   72  55  56 NW18G29   30.09R
LUVERNE        PTSUNNY   72  54  53 NW17G23   30.14S
MARSHALL       PTSUNNY   70  55  60 N22G29    30.11R
MONTEVIDEO     CLOUDY    72  59  64 N21G26    30.11R
PIPESTONE      CLOUDY    66  55  68 N20G25    30.16R
REDWOOD FALLS  MOSUNNY   74  58  57 NW20G26   30.06R
TRACY          CLOUDY    69  58  68 NW16G23   30.12R
WINDOM         MOSUNNY   72  57  60 NW21      30.09R
WORTHINGTON    PTSUNNY   70  55  60 NW20G28   30.13R
$$

IAZ001>003-012>014-020>022-031-032-NEZ013-014-SDZ071-272300-
NORTHWEST IOWA

CITY           SKY/WX    TMP DP  RH WIND       PRES   REMARKS
CHEROKEE       CLOUDY    71  59  65 N12G17    30.11S
DENISON        PTSUNNY   73  57  56 NW22G29   30.09R
ESTHERVILLE    PTSUNNY   71  57  61 NW23G32   30.07R
LE MARS        PTSUNNY   75  59  57 N15G23    30.12S
ORANGE CITY    PTSUNNY   73  55  53 N16G23    30.13R
SHELDON        PTSUNNY   70  57  64 N17G26    30.11S
SIOUX CITY     MOSUNNY   77  56  48 N16       30.11S
SPENCER        MOSUNNY   73  58  59 NW21G26   30.09F
STORM LAKE     PTSUNNY   72  61  68 N16G24    30.11S
$$

ABBREVIATIONS USED IN REMARKS
   TC - TEMPERATURE IN CELSIUS
  WCI - WIND CHILL INDEX
   HX - HEAT INDEX
  VSB - VISIBILITY




USA.gov is the U.S. government's official web portal to all federal, state and local government web resources and services.